This is the latest recevied weather packets stored in our database for station/object OK1FET-5. If no packets are shown the sender has not sent any weather packets the latest 10 day(s).
| Time | Temp. | Humidity | Pressure | Rain* | Wind** | Luminosity | Snow |
|---|---|---|---|---|---|---|---|
| 1778018766 | 11.67° C | 93% | 1007.2 hPa | - | - | - | - |
| 1778018472 | 11.67° C | 95% | 1007.1 hPa | - | - | - | - |
| 1778018472 | 11.67° C | 95% | 1007.1 hPa | - | - | - | - |
| 1778018178 | 11.67° C | 93% | 1007.3 hPa | - | - | - | - |
| 1778018177 | 11.67° C | 93% | 1007.3 hPa | - | - | - | - |
| 1778017883 | 11.67° C | 92% | 1007.3 hPa | - | - | - | - |
| 1778017589 | 11.67° C | 90% | 1007.4 hPa | - | - | - | - |
| 1778017295 | 11.67° C | 91% | 1007.5 hPa | - | - | - | - |
| 1778017000 | 11.67° C | 92% | 1007.5 hPa | - | - | - | - |
| 1778017000 | 11.67° C | 92% | 1007.5 hPa | - | - | - | - |
| 1778016706 | 11.67° C | 92% | 1007.6 hPa | - | - | - | - |
| 1778016412 | 12.22° C | 89% | 1007.6 hPa | - | - | - | - |
| 1778016117 | 12.22° C | 90% | 1007.6 hPa | - | - | - | - |
| 1778015823 | 12.22° C | 90% | 1007.6 hPa | - | - | - | - |
| 1778015529 | 12.78° C | 86% | 1007.3 hPa | - | - | - | - |
| 1778015234 | 13.33° C | 83% | 1007 hPa | - | - | - | - |
| 1778014940 | 14.44° C | 82% | 1006.9 hPa | - | - | - | - |
| 1778014645 | 16.11° C | 79% | 1006.7 hPa | - | - | - | - |
| 1778014350 | 16.67° C | 71% | 1006.6 hPa | - | - | - | - |
| 1778014056 | 16.67° C | 72% | 1006.2 hPa | - | - | - | - |
| 1778013467 | 16.67° C | 67% | 1005.6 hPa | - | - | - | - |
| 1778013172 | 16.67° C | 65% | 1005 hPa | - | - | - | - |
| 1778012877 | 16.67° C | 65% | 1004.7 hPa | - | - | - | - |
| 1778012582 | 16.67° C | 65% | 1004.7 hPa | - | - | - | - |
| 1778012288 | 16.67° C | 64% | 1004.6 hPa | - | - | - | - |
* Rain since midnight (hover to see other rain measurements)
** Current wind speed in m/s (hover to see current wind gust speed)